Location: Lafig�re
(44.4503°N, 4.0357°E)
Time: 15:42:06
(UTC+00:00)

Transit 2A Rocket - Pass Details

Date: 30 January 2021
Orbit: 594 x 908 km, 66.7° (Epoch: 06 March)

Event Time Altitude Azimuth Distance (km) Brightness Sun altitude
Rises 10:03:41 0° 198° (SSW) 3,344 8.9 22.8°
Reaches altitude 10° 10:06:15 10° 195° (SSW) 2,368 8.4 23.0°
Maximum altitude 10:11:33 58° 117° (ESE) 874 6.2 23.5°
Drops below altitude 10° 10:16:25 10° 40° (NE) 2,175 7.2 23.9°
Sets 10:18:41 0° 36° (NE) 3,049 7.9 24.1°
